Location: Aufkirchen
(47.9603°N, 11.3653°E)
Time: 13:24:46
(UTC+02:00)

Transit 2A - Visible Passes

Search period start: 20 June 2021 00:00
Search period end: 30 June 2021 00:00
Orbit: 600 x 958 km, 66.7° (Epoch: 19 June)

Date Brightness Start Highest point End Pass type
(mag) Time Alt. Az. Time Alt. Az. Time Alt. Az.
20 Jun 7.6 01:00:09 10° NNW 01:04:24 30° NE 01:09:01 10° ESE visible
20 Jun 6.1 02:42:58 10° NW 02:47:47 53° WSW 02:51:26 19° S visible
21 Jun 7.9 00:26:08 10° NNW 00:30:02 24° NE 00:34:11 10° E visible
21 Jun 5.9 02:08:43 10° NW 02:13:38 75° WSW 02:17:09 22° SSE visible
21 Jun 7.9 03:54:12 10° W 03:56:07 12° WSW 03:57:34 11° WSW visible
21 Jun 8.2 23:52:11 10° N 23:55:36 19° NE 23:59:12 10° E visible
22 Jun 6.0 01:34:31 10° NNW 01:39:26 79° NE 01:43:03 21° SE visible
22 Jun 7.5 03:18:48 10° WNW 03:22:09 18° WSW 03:23:28 16° SW visible
22 Jun 8.4 23:18:16 10° N 23:21:05 15° NNE 23:24:02 10° ENE visible
23 Jun 6.4 01:00:23 10° NNW 01:05:12 58° NE 01:09:04 18° SE visible
23 Jun 7.1 02:44:01 10° WNW 02:48:08 25° WSW 02:49:30 22° SW visible
23 Jun 8.4 22:44:29 10° N 22:46:33 13° NNE 22:48:42 10° NE visible
24 Jun 6.9 00:26:17 10° NNW 00:30:56 42° NE 00:35:12 14° ESE visible
24 Jun 6.7 02:09:30 10° NW 02:14:03 35° WSW 02:15:38 29° SSW visible
24 Jun 8.6 22:11:00 10° N 22:11:58 11° NNE 22:12:57 10° NNE visible
24 Jun 7.3 23:52:14 10° NNW 23:56:37 32° NE 00:01:23 10° ESE visible
25 Jun 6.3 01:35:07 10° NW 01:39:57 50° WSW 01:41:51 34° S visible
25 Jun 7.7 23:18:13 10° NNW 23:22:14 25° NE 23:26:34 10° E visible
26 Jun 5.9 01:00:51 10° NW 01:05:48 71° WSW 01:08:08 34° SSE visible
26 Jun 8.1 02:46:41 10° W 02:48:15 11° WSW 02:48:35 11° WSW visible
26 Jun 8.0 22:44:14 10° NNW 22:47:49 20° NE 22:51:37 10° E visible
27 Jun 5.9 00:26:38 10° NW 00:31:37 84° NE 00:34:29 29° SE visible
27 Jun 7.7 02:11:04 10° WNW 02:14:17 17° WSW 02:14:56 16° WSW visible
27 Jun 8.2 22:10:18 10° N 22:13:20 16° NNE 22:16:31 10° ENE visible
27 Jun 6.3 23:52:29 10° NNW 23:57:24 62° NE 00:00:53 22° SE visible
28 Jun 7.3 01:36:14 10° WNW 01:40:17 24° WSW 01:41:21 22° SW visible
28 Jun 6.7 23:18:22 10° NNW 23:23:08 45° NE 23:27:20 15° ESE visible
29 Jun 6.9 01:01:40 10° NW 01:06:13 33° WSW 01:07:48 28° SSW visible
29 Jun 7.1 22:44:18 10° NNW 22:48:49 34° NE 22:53:44 10° ESE visible
